Regional Weather Roundup
Issued by NWS

Home | Current Version | Previous Version | Text Only | Print | Product List | Glossary On
Versions: 1 2 3 4 5 6 7 8 9 10 11 12 13 14 15 16 17 18 19 20 21 22 23 24 25 26 27 28 29 30 31 32 33 34 35 36 37 38 39 40 41 42 43 44 45 46 47 48 49 50
000
ASUS46 KSEW 212210
RWRWA

WASHINGTON REGIONAL WEATHER ROUNDUP
NATIONAL WEATHER SERVICE SEATTLE WA
300 PM PDT SUN SEP 21 2014

NOTE:"FAIR" INDICATES FEW OR NO CLOUDS BELOW 12,000 FEET WITH NO
SIGNIFICANT WEATHER AND/OR OBSTRUCTIONS TO VISIBILITY.

WAZ505-507>509-212300-
SEATTLE, TACOMA, EVERETT, AND VICINITY

CITY           SKY/WX    TMP DP  RH WIND       PRES   REMARKS
EVERETT        SUNNY     79  55  43 W7        29.86F
BOEING FIELD   SUNNY     83  57  41 VRB7      29.83F
RENTON         SUNNY     81  58  45 S7        29.83F
SEATAC AIRPORT SUNNY     78  57  48 SW9       29.87S
JBLM-MCCHORD   SUNNY     78  60  53 NW9       29.86F
PUYALLUP       NOT AVBL
JBLM-FT LEWIS  SUNNY     76  59  56 W9        29.86F
TACOMA NARROWS SUNNY     76  57  51 W7        29.86F
$$

WAZ001-503-506-510-514-515-212300-
NORTH INTERIOR

CITY           SKY/WX    TMP DP  RH WIND       PRES   REMARKS
BELLINGHAM     SUNNY     75  52  44 S7        29.83F
FRIDAY HARBOR    N/A    N/A N/A N/A MISG      29.85F
EASTSOUND      SUNNY     68  54  60 MISG      29.81F
PORT ANGELES   SUNNY     69  56  62 NW9       29.86F
NAS WHIDBEY    SUNNY     64  55  72 W3        29.86S
BURLINGTON     SUNNY     79  59  50 S6        29.84F
$$

WAZ020-022-039-040-504-511-512-212300-
SOUTHWEST INTERIOR

CITY           SKY/WX    TMP DP  RH WIND       PRES   REMARKS
SHELTON        SUNNY     71  57  61 SW15      29.87S
OLYMPIA        SUNNY     78  55  44 W6        29.86F
CHEHALIS       FAIR      79  61  53 N7        29.87F
KELSO          SUNNY     77  57  50 NW5       29.90F
VANCOUVER      SUNNY     85  53  33 VRB3      29.84F
SCAPPOOSE, OR  SUNNY     87  53  31 SE6       29.83F
PORTLAND, OR   PTSUNNY   85  54  34 SW6       29.84F
$$

WAZ021-516-517-212300-
WASHINGTON COAST

CITY           SKY/WX    TMP DP  RH WIND       PRES   REMARKS
FORKS          CLOUDY    62  59  90 S8        29.91S
HOQUIAM        CLOUDY    65  58  78 SW10      29.92S
ASTORIA, OR    SUNNY     64  56  75 SW18G26   29.92R
$$

WAZ019-023-024-040-518-519-212300-
CASCADE MOUNTAINS AND COLUMBIA GORGE

CITY           SKY/WX    TMP DP  RH WIND       PRES   REMARKS
STAMPEDE PASS  NOT AVBL
TROUTDALE, OR  SUNNY     87  53  31 VRB6      29.83F
THE DALLES, OR MOSUNNY   91  44  19 NE8       29.81F
$$

WAZ026-027-041>044-520-521-212300-
EAST SLOPES

CITY           SKY/WX    TMP DP  RH WIND       PRES   REMARKS
OMAK           SUNNY     87  42  20 S8        29.89F
WENATCHEE      SUNNY     87  41  19 VRB3      29.88F
ELLENSBURG     SUNNY     90  44  20 NE7       29.90F
YAKIMA         SUNNY     87  47  24 E5        29.88F
$$

WAZ028-034-035-212300-
COLUMBIA BASIN

CITY           SKY/WX    TMP DP  RH WIND       PRES   REMARKS
EPHRATA        SUNNY     89  39  17 CALM      29.88F
MOSES LAKE     SUNNY     89  41  18 VRB5      29.88F
PASCO          SUNNY     85  53  33 NW6       29.85F
HERMISTON, OR  SUNNY     87  47  24 CALM      29.84F
$$

WAZ036>038-212300-
NORTHEAST WASHINGTON

CITY           SKY/WX    TMP DP  RH WIND       PRES   REMARKS
SPOKANE GEIGER MOSUNNY   86  40  19 N5        29.94F
SPOKANE FELTS  SUNNY     88  39  17 CALM      29.92F
FAIRCHILD AFB  SUNNY     85  42  21 NE6       29.95F
COEURDALENE,ID SUNNY     88  45  22 NE6       29.92F
DEER PARK      SUNNY     86  43  22 S3        29.93F
$$

WAZ029>033-212300-
SOUTHEAST WASHINGTON

CITY           SKY/WX    TMP DP  RH WIND       PRES   REMARKS
PULLMAN        SUNNY     88  38  17 VRB3      29.95F
LEWISTON, ID   SUNNY     88  41  19 W3        29.87F
WALLA WALLA    SUNNY     85  46  25 VRB3      29.88F
PENDLETON, OR  SUNNY     88  40  18 N9        29.87F
$$



USA.gov is the U.S. government's official web portal to all federal, state and local government web resources and services.